Wind_Speed
26 25 24 22 19 17 16 15 13 11 10 9 8 8 8 9 8 8 7 6 5 5 4 4 3 4 5 7 8 9 10 11 12 13 14 15 16 17 17 18 19 19 19 20 20 20 20 20 20 20 20 20 20 20 20 20 20 20 21 21 21 22 22 22 23 23 24 24 24
27 25 23 21 20 18 15 14 13 12 11 9 8 7 7 8 7 7 6 5 5 4 4 4 5 6 8 9 10 10 11 11 12 14 15 17 18 18 19 19 19 19 19 19 20 20 20 20 20 20 20 20 20 20 21 20 20 20 21 21 22 22 22 23 23 23 23 24 24
25 23 21 20 19 17 15 14 13 12 11 10 8 7 7 7 7 7 6 5 4 3 4 5 7 8 9 10 10 10 11 12 13 15 17 19 19 19 19 19 19 19 19 19 20 20 20 20 21 21 21 21 21 21 21 21 21 21 21 22 22 22 22 22 23 23 23 23 23
20 19 19 19 19 18 16 14 13 12 11 10 9 8 8 8 8 7 6 5 3 4 6 8 9 10 10 10 10 10 11 13 15 17 18 19 19 19 18 18 19 19 19 20 20 21 21 21 21 21 21 21 22 22 22 22 21 22 22 22 22 22 22 22 22 22 22 23 23
17 17 18 19 19 19 17 14 13 12 11 10 10 9 9 8 8 7 6 5 6 7 9 10 10 10 10 10 11 12 14 15 17 18 19 19 19 18 18 18 19 20 20 21 21 21 21 21 21 21 21 21 21 21 21 21 22 22 22 23 22 22 22 23 23 22 22 23 23
16 17 18 18 17 16 15 13 12 11 11 11 11 10 9 8 7 6 7 8 8 9 9 10 10 10 11 12 13 14 15 16 17 18 18 18 19 19 19 19 20 21 21 21 22 22 22 22 22 22 22 21 21 21 21 21 22 22 22 23 23 22 22 23 23 23 23 23 23
15 16 16 16 14 14 13 12 12 12 12 12 12 11 9 7 6 6 6 7 8 8 9 9 10 11 12 13 14 15 16 17 18 18 18 19 19 20 20 21 21 21 22 22 22 22 22 22 22 22 22 22 22 22 22 22 22 22 23 23 23 22 22 23 23 23 23 23 24
13 14 14 13 13 12 13 13 13 13 14 13 12 10 7 6 5 5 6 6 7 8 9 10 11 12 13 14 15 16 17 18 18 19 19 20 20 20 21 21 21 22 22 22 22 22 22 22 22 22 22 22 22 22 22 22 22 23 23 23 23 23 23 23 23 23 23 24 24
12 12 12 12 12 13 13 14 14 14 13 12 10 8 6 5 4 4 5 6 7 8 10 11 12 13 14 15 16 17 18 18 19 20 20 20 20 20 21 21 21 21 22 22 22 22 22 22 22 22 22 22 22 22 22 22 23 23 24 24 24 24 24 24 24 24 24 25 25
13 13 12 12 13 13 14 14 14 13 11 10 8 6 5 4 4 5 6 7 8 9 11 12 13 14 14 15 16 17 18 19 19 19 19 19 19 20 20 20 21 21 21 22 22 22 22 22 22 22 22 22 23 23 23 24 24 25 25 25 25 25 26 26 26 26 26 26 27
13 13 13 13 13 13 13 13 12 11 9 7 6 6 5 6 6 7 8 9 9 11 12 13 13 14 14 15 16 17 18 18 19 19 19 19 20 20 20 21 21 22 22 22 23 23 23 23 23 23 24 24 24 24 25 25 25 26 26 26 26 27 27 27 27 27 27 27 27
13 13 12 13 13 13 12 11 10 8 7 6 6 6 7 7 8 9 9 10 10 11 12 12 13 14 15 16 17 17 18 19 19 19 20 20 20 21 21 21 22 22 23 23 24 24 24 24 24 24 25 25 25 25 26 26 26 26 27 27 27 27 28 28 28 27 27 27 27
12 13 13 13 13 12 11 9 8 7 6 6 6 6 7 7 8 8 9 10 10 11 11 12 13 14 15 16 17 18 19 19 19 20 20 20 21 21 22 22 22 23 23 24 24 24 24 24 24 25 26 26 26 26 26 27 27 27 27 28 28 28 28 28 28 28 28 28 28
12 13 13 12 12 11 9 8 7 6 5 6 6 6 6 6 7 8 8 9 10 10 11 12 13 14 16 17 18 19 19 19 19 20 20 21 21 22 22 23 23 23 24 24 24 24 24 25 25 25 26 27 27 27 27 28 28 28 28 28 28 28 29 29 28 28 28 28 28
12 12 12 11 10 8 7 6 6 5 5 5 5 5 6 6 7 7 8 8 9 10 11 13 14 16 17 18 19 19 19 19 19 20 20 21 21 22 23 23 24 24 24 25 25 25 25 25 26 26 27 27 28 28 28 28 28 28 28 28 28 29 29 29 29 28 28 28 28
11 10 10 8 7 6 5 5 5 5 5 5 6 6 6 6 7 7 8 8 9 11 13 14 16 17 18 18 19 18 18 18 19 20 20 21 22 22 23 24 24 25 25 25 26 26 26 26 26 27 27 27 28 28 28 28 29 29 29 29 29 29 29 29 29 29 28 28 28
9 8 7 6 5 5 5 5 6 6 6 6 6 7 7 8 8 8 9 9 11 13 14 16 17 18 18 18 18 18 18 18 19 20 21 22 23 23 24 25 25 25 26 26 26 27 27 27 27 28 28 28 28 28 28 28 29 29 29 29 30 30 30 29 29 29 29 28 28
8 7 6 6 6 6 6 7 7 7 8 8 8 8 8 9 9 10 10 11 13 14 16 17 18 18 18 18 18 18 19 19 20 21 22 22 23 24 25 25 26 26 26 27 27 27 28 28 28 28 28 28 28 28 28 29 29 29 29 30 30 30 30 30 30 29 29 29 29
7 7 6 6 7 7 8 8 9 9 9 9 9 9 10 10 10 11 12 13 14 15 16 17 18 18 18 19 19 19 20 20 21 22 23 23 24 25 25 26 26 27 27 27 27 28 28 28 28 28 28 28 28 28 29 29 29 29 29 30 30 30 30 30 30 30 30 30 30
6 7 7 7 8 8 8 9 9 9 9 10 10 10 10 10 11 12 13 14 15 16 17 18 19 19 19 19 20 20 21 21 22 23 23 24 25 25 26 26 27 27 27 27 28 28 28 28 28 28 28 28 28 29 29 29 29 29 29 29 29 29 30 30 30 29 29 29 28
7 7 7 8 8 8 8 9 9 9 9 9 9 10 10 11 12 13 14 16 17 17 18 19 19 19 19 20 20 21 22 22 23 23 24 25 25 26 26 27 27 27 27 27 27 28 28 28 28 28 28 28 28 29 29 29 29 29 29 29 29 29 29 29 28 27 26 26 25
7 7 7 7 7 7 8 9 9 9 9 9 9 10 11 12 13 15 16 17 18 18 18 19 19 19 20 20 21 21 22 23 24 24 25 25 26 26 27 27 27 27 27 27 27 28 28 28 28 28 28 28 28 28 28 28 28 28 28 28 28 28 27 26 25 24 23 23 23
6 6 6 6 6 7 8 9 9 9 9 9 9 10 12 14 15 16 17 17 18 18 18 18 19 19 20 21 21 22 23 24 25 25 26 26 27 27 27 27 27 27 27 27 27 27 27 27 27 27 27 27 27 27 27 27 27 27 27 27 27 26 25 24 23 22 22 23 24
5 5 5 6 7 7 8 8 8 8 8 9 10 12 13 15 16 16 17 17 17 17 18 18 19 20 20 21 22 23 24 25 25 26 26 26 27 27 27 26 26 26 26 26 26 26 26 26 26 26 26 26 27 27 27 27 27 27 27 27 27 27 26 26 25 25 26 27 28
5 6 6 7 8 8 8 8 8 8 9 10 12 13 14 15 16 17 17 17 17 17 18 18 19 21 22 22 23 24 24 25 25 25 26 26 26 26 25 25 25 25 25 26 26 26 26 27 27 27 27 27 28 28 28 28 28 27 27 26 26 26 26 27 28 28 29 30 31
6 7 8 8 9 9 9 9 9 10 11 12 13 14 15 16 17 17 17 17 17 17 18 19 21 22 23 23 23 23 24 24 24 24 24 25 25 25 25 25 25 25 25 26 26 26 27 27 27 28 28 28 27 27 27 27 26 25 24 24 24 24 25 26 27 28 29 30 31
7 8 8 9 9 9 10 10 11 12 13 13 14 15 16 16 16 16 16 16 17 18 19 21 22 23 23 23 23 23 23 23 23 24 24 25 25 26 26 26 26 26 26 26 27 27 27 27 28 27 27 25 24 23 23 23 22 21 21 22 22 22 23 24 26 27 29 30 31
8 8 9 9 10 11 11 12 13 13 14 14 15 15 15 15 15 15 16 17 19 20 21 22 22 22 22 22 22 22 23 23 24 24 25 25 26 26 26 26 26 26 26 27 27 27 27 27 27 26 24 22 21 20 20 20 20 20 20 21 22 22 23 24 26 28 29 30 30
9 10 10 11 12 13 13 13 13 14 14 15 15 15 14 14 14 15 17 19 20 21 22 22 22 22 22 22 22 23 23 24 24 25 25 25 26 26 26 26 26 26 27 27 27 27 28 27 26 24 23 21 20 20 20 20 21 21 21 22 22 23 25 26 27 28 28 28 28
11 12 13 13 14 14 14 14 14 15 15 15 14 14 13 14 15 17 18 20 21 22 22 22 22 22 22 23 23 24 24 24 24 25 25 25 25 26 26 26 26 27 27 27 27 28 27 26 25 24 23 22 22 22 23 23 23 23 24 24 25 26 27 27 28 28 28 27 27
13 13 14 14 14 15 15 15 15 15 14 13 13 13 14 15 16 18 19 20 21 22 22 22 23 23 23 23 23 24 24 24 24 25 25 25 26 26 27 27 27 27 27 27 27 27 26 25 24 24 24 24 24 24 25 25 25 26 26 26 27 27 27 27 27 27 27 28 28
13 14 14 14 15 15 15 15 14 13 12 12 13 14 15 16 17 19 20 21 22 22 23 23 23 23 23 23 23 23 24 24 25 25 25 25 26 26 27 27 27 27 27 26 26 25 25 25 25 25 25 26 26 26 26 26 26 26 26 27 27 27 27 27 27 27 28 28 29
14 14 14 14 14 14 13 13 12 11 12 12 13 15 16 17 19 20 21 22 22 22 22 22 22 22 22 23 23 24 24 25 25 25 25 26 26 26 27 27 27 26 26 25 25 25 25 26 26 27 27 27 27 27 26 26 25 25 25 26 26 27 27 28 28 28 29 29 29
15 14 14 13 13 12 12 12 12 12 12 13 14 16 17 19 20 21 22 22 22 22 22 22 22 22 22 23 23 24 24 25 25 26 26 26 26 26 26 27 26 26 25 25 25 26 26 27 27 28 28 28 27 27 26 25 25 25 25 26 27 27 27 28 29 29 29 29 30
15 14 13 12 11 10 10 11 11 12 13 14 16 17 19 20 21 21 22 22 22 22 21 21 21 22 22 23 23 24 25 25 26 26 26 26 26 26 26 26 26 26 25 25 26 26 27 28 28 28 28 28 27 26 25 25 25 25 26 26 27 27 28 28 29 29 29 29 30
12 12 11 10 9 8 9 10 11 12 14 16 17 19 20 20 21 21 21 21 21 21 21 21 22 22 22 23 24 24 24 25 25 26 26 26 26 26 26 26 26 25 25 25 26 27 28 28 28 28 27 26 25 25 25 24 24 25 25 26 26 27 28 28 28 29 29 29 30
8 7 6 5 5 7 8 10 12 13 15 17 18 19 20 20 20 20 20 20 20 20 21 21 21 22 22 23 24 24 25 25 25 26 26 26 25 25 25 25 25 25 25 26 27 28 28 28 28 27 27 26 25 25 24 24 24 24 24 25 25 26 26 26 27 28 29 29 30
5 4 4 4 6 8 10 12 13 15 16 18 19 19 20 20 20 20 19 19 20 20 21 21 22 22 23 23 24 25 25 25 25 25 26 25 24 24 23 24 24 25 26 27 28 28 28 28 28 28 27 27 26 25 25 24 23 23 23 24 24 25 25 25 26 27 28 29 30
4 5 6 7 9 11 12 14 15 17 18 18 19 19 19 19 19 19 19 19 19 20 20 21 22 22 23 24 24 25 25 26 25 25 25 24 23 23 23 24 25 27 28 28 28 28 28 28 28 28 28 28 27 26 25 23 23 23 23 23 23 24 25 25 25 25 26 27 27
5 7 8 10 12 13 15 16 17 18 18 18 18 18 18 18 18 19 19 19 19 20 20 21 22 23 23 24 25 25 26 26 25 24 24 23 23 23 23 24 26 27 28 28 28 28 28 28 29 29 29 28 27 26 25 23 22 22 23 23 23 23 24 23 23 22 22 21 21
7 9 10 12 13 15 16 17 18 18 18 17 17 17 18 18 18 19 19 19 20 20 21 21 22 23 24 25 25 25 26 26 25 24 23 22 23 23 24 25 26 27 27 27 27 27 27 28 28 29 29 28 28 26 25 23 22 22 22 23 22 21 19 18 18 18 19 20 21
Wind_Direction
237 233 231 228 223 215 209 208 198 187 182 182 184 187 192 199 201 203 203 200 193 189 190 199 222 249 267 275 279 281 282 282 282 281 280 280 282 284 285 286 287 288 289 289 289 289 288 287 286 284 283 282 280 280 279 278 277 277 276 275 275 275 275 275 275 275 275 275 274
237 232 226 219 214 206 196 190 191 190 189 189 188 187 192 199 197 195 193 190 189 194 208 231 251 266 274 277 278 279 278 277 277 277 278 279 280 281 283 284 286 287 288 288 289 288 288 287 286 285 284 282 281 280 279 277 277 276 275 275 274 275 275 275 275 275 274 274 274
236 227 215 207 202 194 186 184 193 196 196 201 203 203 199 187 180 175 173 175 184 206 237 255 267 273 276 276 275 273 272 273 274 277 279 280 279 280 281 283 284 285 286 287 288 287 287 287 286 285 284 283 282 280 279 278 277 276 275 274 274 274 274 274 274 275 275 274 274
225 210 199 195 191 193 195 191 196 200 202 204 203 197 187 176 170 167 170 182 211 243 259 266 271 274 274 273 271 270 271 274 277 279 280 279 278 278 280 282 283 285 286 286 287 287 286 286 286 285 283 282 281 280 279 278 277 275 274 274 273 273 273 273 274 274 274 274 274
205 191 186 187 192 196 199 198 198 200 201 198 191 184 177 173 172 180 197 223 246 258 263 267 270 271 272 271 272 273 275 277 279 280 279 277 277 278 280 281 283 284 285 285 286 286 286 286 285 284 283 281 280 278 277 276 275 274 273 273 272 272 272 273 273 273 274 274 274
183 179 182 183 185 189 193 193 191 187 185 184 175 168 166 173 183 202 223 240 250 257 262 265 268 270 272 273 274 276 277 279 280 279 277 276 277 279 281 282 283 283 284 285 285 285 285 285 284 283 281 280 279 277 276 275 274 273 272 272 271 271 271 271 272 272 273 273 273
172 171 175 181 181 179 178 179 179 174 167 162 158 157 161 170 186 207 225 239 248 256 261 266 269 272 273 275 276 277 278 280 280 278 276 276 278 279 280 281 282 282 283 283 283 283 283 283 282 281 280 279 278 277 276 275 273 272 272 271 271 270 270 271 271 272 272 272 273
170 168 172 178 174 170 170 171 170 165 160 157 155 156 160 170 188 211 229 244 254 262 267 271 273 274 275 276 277 278 279 280 280 277 275 276 277 278 279 280 280 281 281 281 281 281 281 280 279 279 278 277 277 276 275 274 273 272 272 271 271 271 271 271 271 272 272 272 272
162 164 165 163 161 161 162 161 159 158 157 158 160 163 169 183 205 227 245 258 265 269 272 274 275 276 277 278 278 279 280 280 278 275 274 275 276 277 278 279 279 280 280 280 280 280 280 279 278 277 276 276 275 275 275 274 274 273 273 273 273 273 272 272 272 272 272 273 273
157 159 161 163 161 160 159 159 159 161 163 166 172 180 193 212 232 248 259 267 271 273 273 275 276 278 278 279 280 280 280 278 276 274 274 275 276 278 279 280 280 281 281 282 282 282 281 280 279 278 277 277 276 276 276 275 275 275 274 274 274 274 274 273 273 273 273 273 273
160 161 163 166 165 163 162 162 165 169 174 178 188 203 220 236 248 257 263 268 270 271 272 274 276 278 279 280 281 281 281 280 278 277 278 279 280 281 281 282 283 284 284 285 285 285 284 283 282 281 280 279 278 278 277 277 276 276 275 275 275 275 274 274 273 273 273 273 274
161 163 163 162 162 161 161 163 168 174 180 189 204 219 232 242 250 256 262 265 266 268 270 273 275 277 279 281 282 283 283 283 283 282 282 283 283 284 285 285 286 286 286 287 287 286 285 284 283 282 281 280 279 278 277 277 276 276 276 275 275 275 274 274 274 274 273 274 274
157 154 153 153 155 156 158 161 167 175 185 198 211 223 232 240 248 254 259 261 264 266 270 273 275 278 280 281 282 283 283 284 284 284 284 285 286 286 286 287 287 287 287 287 287 286 285 284 282 281 280 279 278 277 277 276 276 276 276 275 275 275 274 274 274 274 274 274 274
146 145 145 147 149 153 157 163 172 183 195 207 216 225 233 241 247 252 256 260 263 267 271 274 276 278 279 280 282 282 283 283 284 284 285 285 286 286 286 287 287 287 287 287 286 286 285 283 282 281 280 279 278 277 277 277 276 276 275 275 275 275 275 275 275 275 274 274 274
142 143 144 145 149 155 163 172 184 197 208 216 222 230 238 245 250 253 256 260 264 268 271 274 276 277 278 279 280 281 282 283 284 285 285 286 286 286 286 286 286 286 286 286 286 285 284 283 282 281 280 279 278 278 278 277 277 276 276 276 275 275 275 275 275 275 275 275 275
139 142 146 150 157 167 179 191 203 212 218 222 227 234 241 248 253 255 258 261 264 267 270 272 274 276 278 279 279 280 281 283 284 284 285 285 285 285 286 286 286 286 286 286 286 285 284 283 282 281 280 279 279 278 278 278 277 277 277 276 276 276 276 276 277 277 276 276 276
145 150 158 167 179 191 202 211 219 223 225 228 232 238 244 250 254 255 257 259 263 266 269 271 273 275 277 278 278 279 281 282 283 283 284 284 285 285 286 286 286 286 286 285 285 285 284 283 282 281 280 280 279 279 279 279 278 278 278 278 277 277 277 277 277 277 277 277 276
161 170 181 192 204 215 221 225 228 229 232 235 239 244 247 250 252 254 257 260 264 267 269 272 274 275 276 277 278 278 279 280 281 282 283 284 285 285 286 286 286 286 286 286 285 284 283 283 282 281 281 281 280 280 280 279 279 279 279 278 278 278 278 278 277 277 277 276 276
179 191 202 213 221 227 231 232 234 236 239 242 246 249 251 252 254 257 261 264 267 270 273 275 277 277 277 277 278 278 278 279 281 282 283 284 285 286 286 287 287 287 287 286 285 284 283 283 282 282 282 281 281 281 280 280 279 279 279 278 278 278 277 277 276 276 275 275 275
200 212 223 229 233 236 238 240 243 247 250 252 254 254 255 257 260 263 266 269 272 274 277 278 278 278 278 277 278 279 279 281 282 283 284 285 286 286 287 287 288 287 287 286 285 284 283 283 282 282 282 282 281 281 281 280 279 279 278 278 277 276 276 275 275 274 274 274 274
221 230 238 242 245 248 252 255 258 259 259 258 257 257 260 263 266 269 271 273 275 277 277 278 278 278 278 278 279 280 282 283 284 285 286 286 287 287 287 287 287 287 286 285 284 283 283 282 282 282 281 281 281 280 280 279 279 278 277 276 276 275 274 274 274 274 274 274 273
236 241 247 252 256 260 263 265 265 263 260 258 258 261 265 268 271 272 274 275 276 277 276 277 277 278 280 281 282 283 284 285 286 286 286 286 286 286 287 287 286 286 285 284 283 283 282 282 281 281 280 280 280 279 279 279 279 278 278 277 276 276 276 276 276 275 274 274 274
248 252 258 264 268 269 269 267 265 261 259 259 262 265 268 271 272 274 275 276 276 276 277 278 279 281 282 283 284 285 286 287 287 286 286 286 285 286 286 286 285 285 284 283 282 282 281 281 281 280 280 280 280 280 280 280 280 280 280 280 280 280 279 279 277 276 275 275 276
267 272 277 281 281 277 273 270 266 264 263 264 266 268 270 272 274 275 276 277 277 278 280 281 283 284 285 286 286 286 287 287 287 286 286 285 285 285 285 285 284 284 283 282 281 281 280 280 280 280 280 280 280 280 280 280 280 280 280 280 281 280 279 278 277 276 275 276 276
290 292 292 290 285 280 275 272 270 268 266 266 267 269 271 273 275 276 278 279 280 282 284 286 287 287 288 288 287 287 286 286 286 286 286 286 285 285 285 285 284 284 283 282 281 281 280 280 279 279 280 280 280 279 279 279 279 279 279 279 279 278 277 276 275 274 274 274 274
296 294 290 286 282 277 273 268 264 262 261 263 265 268 271 274 277 279 282 284 286 288 290 290 290 290 290 289 288 287 286 286 286 286 287 287 287 287 287 286 286 285 284 284 283 283 282 282 282 281 281 281 280 280 280 280 279 279 279 278 278 276 276 275 274 273 273 273 273
291 288 284 280 274 269 264 258 256 255 257 261 266 270 274 278 281 285 288 291 293 294 294 293 292 292 291 290 289 288 288 288 288 289 289 289 289 289 289 288 287 287 286 286 286 286 286 286 286 286 286 285 284 283 282 282 282 281 280 279 277 276 275 274 274 274 274 274 273
282 278 274 269 264 260 255 253 252 254 258 263 268 273 278 283 288 291 294 295 295 295 295 294 294 293 293 292 291 291 291 292 292 292 292 291 291 291 290 290 289 289 288 289 289 290 290 291 291 292 291 290 288 287 286 285 284 284 282 280 278 276 275 274 275 275 275 274 273
272 267 263 260 257 255 253 253 254 257 262 267 272 277 283 288 291 293 294 294 294 294 295 295 295 295 294 294 294 294 294 294 294 294 293 293 292 292 292 291 291 291 291 291 292 293 293 294 294 294 293 292 292 291 289 288 286 285 283 281 279 278 277 276 275 274 273 272 271
263 260 258 256 255 255 255 256 258 261 265 270 277 283 289 291 292 293 293 294 295 295 295 296 296 296 295 295 295 295 295 295 295 295 295 295 295 294 294 294 294 293 293 293 294 294 294 294 295 294 293 293 294 293 292 290 288 286 284 282 281 279 277 276 274 272 271 269 269
256 256 256 256 257 257 258 259 262 265 270 277 284 289 291 292 293 294 295 296 296 296 296 296 296 296 296 296 296 296 296 296 297 297 297 297 296 296 296 295 295 294 294 294 295 295 295 295 295 295 295 295 296 295 293 291 289 286 284 282 279 277 275 272 271 269 268 267 267
251 254 256 257 258 259 260 262 265 270 277 285 289 291 292 294 295 296 296 296 296 296 297 297 296 296 297 297 297 297 297 298 298 298 297 297 297 296 296 296 295 295 295 295 295 295 295 295 295 296 296 297 297 296 294 291 288 285 282 279 276 273 271 269 268 267 267 266 265
250 255 257 259 260 262 265 268 273 279 285 289 290 292 294 295 296 296 296 296 296 296 297 297 297 297 298 298 299 299 299 299 298 298 298 297 297 297 296 296 295 295 296 296 296 296 296 296 296 297 297 297 297 296 293 290 286 282 279 276 273 271 269 268 266 265 265 265 264
249 254 259 263 267 270 275 279 283 287 289 291 293 295 295 295 295 295 295 295 296 297 297 298 298 299 299 299 299 299 299 299 299 299 298 298 298 297 297 296 296 296 296 296 297 297 297 297 297 297 297 297 296 293 290 287 282 278 275 273 272 270 269 267 266 265 264 264 264
249 253 258 264 269 276 282 286 289 292 294 296 296 296 295 294 293 294 295 296 298 298 299 299 300 300 300 299 299 299 299 299 299 299 299 299 299 298 297 297 296 296 296 297 297 298 298 298 298 297 297 296 294 291 287 284 280 277 274 272 270 269 268 267 266 265 264 264 263
258 259 261 264 269 277 284 290 294 297 298 299 298 297 295 294 294 295 297 299 300 301 301 301 301 301 300 300 300 300 300 300 300 300 300 300 300 299 298 297 297 297 297 298 299 299 299 299 298 297 296 294 291 288 285 281 278 276 274 272 269 268 268 266 266 265 265 265 264
271 271 272 275 282 289 294 298 301 302 301 300 299 297 297 297 297 299 300 302 303 303 303 302 302 301 300 300 300 300 300 301 301 301 301 301 301 300 299 299 299 299 299 300 300 300 299 298 297 296 294 292 288 286 283 280 277 274 273 272 270 269 267 266 266 266 265 265 264
291 302 314 317 313 310 309 308 307 305 303 300 299 299 299 300 301 303 304 305 304 304 303 302 301 301 300 301 301 301 301 301 301 302 302 302 302 301 301 301 301 301 301 301 301 300 299 297 295 294 292 289 286 284 281 278 275 273 272 271 271 271 269 268 268 267 265 265 263
334 334 329 323 319 316 314 311 307 305 303 301 301 302 303 304 304 305 305 305 304 303 302 301 301 301 302 302 302 302 302 302 302 302 302 302 303 303 303 303 303 302 302 301 300 299 297 296 294 293 291 289 286 283 280 277 274 273 272 272 272 273 272 271 269 267 266 266 266
345 335 327 322 318 315 311 308 305 303 303 303 304 305 306 306 306 305 305 304 303 302 302 302 302 302 303 303 303 303 303 302 303 303 303 304 304 304 304 304 303 303 302 301 300 298 297 295 294 293 291 289 286 283 280 278 275 274 274 274 274 274 274 273 271 271 272 275 278
335 329 323 318 314 311 308 305 304 303 304 305 307 307 307 307 306 305 305 304 304 303 303 303 303 303 303 303 303 303 303 303 303 304 304 304 305 305 305 304 303 302 301 300 299 298 296 295 294 293 292 290 288 285 283 281 278 276 275 275 275 275 277 280 283 285 287 288 288
Height
762 763 764 765 766 767 768 770 771 772 773 775 776 777 778 779 780 781 782 782 783 784 785 785 786 787 787 788 788 789 790 791 791 792 792 792 792 791 791 790 790 789 789 788 788 787 787 787 786 786 785 785 784 783 783 783 783 782 782 782 781 781 780 780 779 779 778 778 777
759 761 762 762 763 765 767 768 770 771 773 774 775 776 777 778 779 780 781 782 783 783 784 785 786 787 787 787 788 789 789 790 790 791 791 791 791 790 789 789 788 788 787 787 787 786 786 785 785 784 783 783 782 782 782 781 781 781 780 780 779 779 779 778 777 777 777 776 776
757 758 759 760 762 764 766 767 769 771 772 774 775 776 777 778 778 780 781 782 782 783 784 785 786 787 787 787 788 788 788 789 789 789 789 789 789 788 788 787 787 786 786 785 785 784 784 783 783 782 782 781 781 781 780 780 780 779 779 778 778 778 777 777 776 776 775 775 774
755 756 757 758 760 763 765 767 768 770 772 773 774 775 776 777 778 779 780 781 782 783 784 785 786 786 787 787 787 787 788 788 788 788 788 787 787 786 786 785 785 784 784 784 783 783 782 782 782 781 780 780 780 779 779 778 778 778 777 777 777 776 776 775 775 774 774 773 772
754 755 756 757 759 762 764 766 767 769 771 772 773 774 776 777 777 778 780 781 782 783 784 785 785 786 786 786 786 787 787 787 787 787 786 786 785 785 784 784 783 783 782 782 782 781 781 780 780 779 779 778 778 777 777 777 777 776 776 775 775 774 774 773 773 772 772 772 771
752 754 755 757 759 761 763 765 767 768 770 771 772 774 775 776 777 778 779 781 782 783 784 784 785 785 785 785 786 786 786 785 785 785 784 784 783 783 782 782 782 781 781 780 780 779 779 779 778 778 777 777 776 776 776 775 775 774 774 773 773 773 772 772 772 771 771 770 769
752 754 755 757 759 761 762 765 766 768 769 770 772 773 774 776 777 778 779 781 782 782 783 783 784 784 784 784 784 784 784 784 784 783 783 782 782 781 781 780 780 779 779 778 778 778 777 777 777 776 776 775 775 774 774 774 773 773 772 772 771 771 771 770 770 769 769 768 768
753 754 756 757 759 761 762 764 766 767 768 770 771 773 774 775 777 778 779 780 781 782 782 783 783 783 783 783 783 783 783 782 782 782 781 781 780 779 779 778 778 777 777 777 777 776 776 775 775 774 774 773 773 772 772 772 772 771 771 770 770 769 769 769 768 768 767 767 766
754 755 757 758 759 761 762 764 765 767 768 770 771 772 773 775 776 777 778 779 780 781 782 782 782 782 782 782 782 782 782 781 781 780 779 779 778 778 777 777 776 776 775 775 775 774 774 774 773 772 772 772 771 771 770 770 770 769 769 768 768 767 767 767 767 766 766 765 765
754 755 757 758 759 761 762 764 765 767 768 769 770 772 773 774 776 777 778 779 779 780 781 781 781 781 781 781 781 781 780 780 779 778 778 777 777 776 776 775 775 774 774 773 773 773 772 772 771 771 770 770 769 769 769 768 768 767 767 767 766 766 765 765 765 765 764 763 763
754 755 757 758 759 761 762 764 765 767 767 769 770 771 772 774 775 776 777 778 779 779 780 780 780 780 780 780 779 779 778 778 777 777 776 776 775 775 774 774 773 773 772 772 772 771 771 770 769 769 768 768 768 767 767 767 766 766 765 765 764 764 763 763 763 763 762 762 761
754 755 757 758 759 761 762 764 765 766 767 768 770 771 772 773 775 776 777 777 778 778 778 779 779 779 779 778 778 777 777 777 776 775 775 774 773 773 772 772 772 771 771 770 770 769 769 768 768 767 767 766 766 766 765 765 764 764 763 762 762 762 762 761 761 761 761 760 759
754 756 757 758 760 761 763 764 765 766 767 768 770 771 772 773 774 775 776 776 777 777 777 777 778 778 777 777 777 776 776 775 774 774 773 773 772 772 771 771 770 770 769 768 768 768 767 767 766 766 765 764 764 763 763 763 762 762 761 761 760 760 759 759 759 759 758 758 757
755 757 758 759 761 762 763 764 765 766 767 768 769 770 771 772 773 774 774 775 776 776 776 777 777 776 776 776 775 775 774 773 773 772 772 771 771 770 770 769 768 768 767 767 767 766 766 765 764 764 763 762 762 761 761 761 760 760 759 759 758 758 757 757 757 757 757 756 756
757 758 759 760 762 762 763 764 765 766 767 768 769 770 771 772 772 773 773 774 774 775 775 775 775 775 774 774 773 773 772 772 772 771 771 770 769 769 768 767 767 766 766 765 765 764 764 763 762 762 761 760 760 759 759 759 758 758 757 757 756 756 755 755 755 755 754 754 753
757 759 760 761 762 763 764 765 765 766 767 767 768 769 770 771 771 772 772 773 773 774 774 774 773 773 772 772 772 772 771 771 770 770 769 768 768 767 767 766 765 765 764 763 763 762 762 761 761 760 759 758 758 757 757 757 756 756 755 754 754 753 753 753 753 752 752 752 752
758 760 761 762 762 763 764 765 765 766 767 767 768 768 769 770 770 771 771 772 772 772 772 772 772 771 771 771 770 770 770 769 769 768 767 767 766 766 765 764 763 763 762 762 761 760 760 759 758 758 757 757 756 755 755 754 754 753 753 752 752 752 751 751 751 751 750 750 749
759 760 761 762 762 763 764 764 765 765 766 766 767 767 768 769 769 770 770 770 771 771 770 770 770 770 769 769 769 768 768 767 767 767 766 765 764 764 763 762 762 761 760 760 759 758 757 757 756 756 755 755 754 753 753 752 752 751 751 750 750 749 749 749 749 748 748 748 747
759 760 761 761 762 762 763 763 764 764 765 765 766 767 767 767 768 768 769 769 769 769 768 768 768 768 768 767 767 767 766 766 765 765 764 763 762 762 761 760 760 759 758 758 757 756 756 755 754 754 753 752 752 751 751 750 750 749 749 748 748 747 747 747 747 747 746 746 746
759 759 760 761 761 762 762 763 763 763 764 764 765 765 766 766 767 767 767 767 767 767 767 767 767 766 766 766 765 765 764 764 763 763 762 762 761 760 759 759 758 757 757 756 755 754 754 753 752 752 751 751 750 749 749 748 748 747 747 746 746 746 745 745 745 744 744 744 743
758 759 760 760 761 761 762 762 762 763 763 764 764 765 765 765 766 766 766 766 766 766 766 765 765 765 764 764 764 763 762 762 762 761 760 760 759 758 758 757 756 755 755 754 753 752 752 751 750 750 749 749 748 747 747 746 746 745 744 744 744 743 743 743 742 742 742 742 742
758 759 759 760 760 761 761 761 762 762 762 763 763 764 764 765 765 765 765 764 764 764 764 764 764 763 763 762 762 761 761 760 760 759 758 758 757 757 756 755 754 753 752 752 751 750 750 749 748 748 747 747 746 745 745 744 743 743 742 742 742 741 741 741 740 740 740 740 740
758 758 759 759 760 760 760 761 761 762 762 762 763 763 763 763 763 763 763 763 763 763 763 762 762 762 761 761 760 760 759 758 757 757 757 756 755 754 753 753 752 751 750 749 749 748 747 747 746 746 745 745 744 743 742 742 742 741 740 740 739 739 739 738 738 738 738 738 738
758 758 758 759 759 760 760 760 761 761 762 762 762 762 762 762 762 762 762 762 762 761 761 761 761 760 760 759 758 758 757 756 756 755 754 753 753 752 751 751 750 749 748 747 747 746 745 745 744 743 743 742 742 741 741 740 739 739 738 738 737 737 737 736 736 736 736 736 736
758 758 758 759 759 759 760 760 761 761 761 761 761 761 761 761 761 761 760 760 760 760 760 759 759 758 758 757 757 756 755 754 754 753 752 751 751 750 749 749 748 747 746 745 744 744 743 743 742 742 741 740 739 739 738 738 737 737 736 736 735 735 735 734 734 734 734 734 734
758 758 758 759 759 759 760 760 760 761 761 761 760 760 760 760 759 759 759 759 758 758 758 758 757 757 756 755 755 754 753 752 752 751 750 749 748 748 747 747 746 745 744 743 742 742 741 741 740 740 739 738 737 737 736 735 735 735 734 734 733 733 732 732 732 732 732 731 731
758 758 758 759 759 759 759 759 759 759 759 759 759 759 758 758 758 758 758 757 757 757 757 756 756 755 754 753 753 752 751 751 750 749 748 747 747 746 745 744 743 743 742 741 741 740 739 739 738 738 737 736 735 734 734 733 733 732 732 732 732 731 731 730 729 729 729 728 728
758 758 758 758 758 758 758 758 758 758 758 758 757 757 757 757 757 757 757 756 756 756 755 754 754 753 752 752 751 750 749 749 748 747 746 746 745 744 743 742 742 741 740 739 739 738 737 737 736 736 735 734 733 732 732 732 731 731 730 730 730 729 728 728 727 727 726 725 725
757 757 757 757 757 757 757 757 757 757 757 756 756 756 756 756 756 756 756 755 755 754 753 753 752 752 751 750 749 748 747 747 746 745 744 744 743 742 741 740 740 739 738 737 737 736 736 735 734 734 733 732 732 731 730 730 730 729 728 728 727 727 726 726 725 724 724 723 722
756 756 756 756 756 756 756 756 755 755 755 755 755 755 755 755 755 755 754 754 753 752 752 751 751 750 749 748 747 747 746 745 744 743 743 742 741 740 739 738 738 737 736 736 735 734 734 733 732 732 731 730 730 729 728 728 728 727 727 726 725 725 724 723 723 722 721 721 720
755 754 754 754 754 754 754 754 754 754 754 754 754 754 754 754 754 753 753 752 752 751 750 750 749 748 747 747 746 745 744 743 742 742 741 740 739 738 737 737 736 735 734 734 733 733 732 731 730 730 729 728 728 727 727 726 726 725 724 723 723 722 722 721 720 720 719 718 717
753 753 753 753 753 753 753 753 753 753 753 754 754 754 753 753 752 752 752 751 750 750 749 748 747 747 746 745 744 743 742 742 741 740 739 738 737 737 736 735 734 733 732 732 732 731 730 729 728 728 727 727 726 725 725 724 723 723 722 721 720 720 719 719 718 717 716 716 715
752 752 752 752 751 752 752 752 752 752 753 753 753 752 752 752 751 751 750 750 749 748 747 747 746 745 744 743 742 742 741 740 739 738 737 737 736 735 734 733 732 732 731 730 730 729 728 727 726 726 725 725 724 723 722 722 721 720 719 718 718 717 717 716 715 714 713 712 712
750 750 750 750 750 751 751 751 752 752 752 752 751 751 751 750 750 749 748 748 747 747 746 745 744 743 743 742 741 740 739 738 737 737 736 735 734 733 732 731 730 730 729 729 728 727 726 725 724 724 723 723 722 721 721 720 719 718 717 716 715 714 713 713 712 711 710 709 709
749 749 749 749 750 750 750 750 751 751 751 750 750 750 749 749 748 748 747 747 746 745 744 743 743 742 741 741 740 739 738 737 736 735 734 733 732 731 730 729 728 728 727 727 726 725 724 723 722 722 722 721 720 719 718 717 716 715 714 713 712 711 710 710 709 708 707 707 706
748 748 748 749 749 749 749 750 750 750 749 749 749 748 748 747 747 746 746 745 744 743 743 742 742 741 740 739 738 737 736 735 734 733 732 732 731 730 728 727 727 726 726 725 724 723 722 722 721 720 719 719 718 717 716 715 713 712 711 710 709 708 707 707 706 705 704 703 702
747 747 747 748 748 749 749 749 749 748 748 748 748 747 747 746 745 745 744 744 743 742 742 741 740 739 738 737 737 736 735 734 733 732 731 730 729 728 727 726 725 724 724 723 722 721 720 720 719 718 717 717 716 714 713 712 711 710 708 707 706 705 704 703 702 702 701 700 699
746 747 747 747 747 748 748 748 748 747 747 747 746 746 745 745 744 744 743 742 742 741 740 739 739 738 737 736 735 734 733 732 731 730 729 728 727 727 726 724 723 722 722 722 721 720 719 717 717 716 715 714 713 712 711 710 708 707 706 705 703 702 701 701 700 698 697 696 695
746 746 747 747 747 747 747 747 747 746 746 745 745 744 744 744 743 742 742 742 741 740 739 738 737 736 735 734 733 732 731 730 730 729 728 727 726 725 724 723 722 721 720 720 719 718 717 716 715 714 713 712 711 710 708 707 706 704 703 702 701 699 698 697 697 695 694 693 692
746 746 746 747 747 746 746 746 746 745 745 744 744 743 743 742 742 742 741 740 740 739 738 737 736 735 734 733 732 731 730 729 728 727 727 726 725 724 723 722 721 719 719 718 717 716 715 714 712 712 711 710 709 707 706 705 703 702 701 699 698 697 696 694 694 693 692 691 691
746 746 746 746 746 746 745 745 744 744 744 743 743 742 742 742 741 740 740 739 738 737 737 735 734 733 732 732 731 729 728 727 726 726 725 724 723 722 722 721 719 718 717 716 715 714 713 712 711 710 709 708 707 705 704 702 701 699 698 697 696 695 694 692 692 691 691 690 689